Tracking 31027 objects as of 19-Jul-2025
HD Live streaming from Space Station
objects crossing your sky now

SL-8 R/B

Track SL-8 R/B now!
10-day predictions


NORAD ID: 14547
Int'l Code: 1983-120B
Perigee: 946.9 km
Apogee: 1,013.7 km
Inclination: 82.9 °
Period: 104.5 minutes
Semi major axis: 7351 km
RCS: 4.4678 m2 (large)
Launch date: December 8, 1983
Source: Commonwealth of Independent States (former USSR) (CIS)
Launch site: PLESETSK MISSILE AND SPACE COMPLEX (PKMTR)

Note: This is a ROCKET BODY
Your satellite tracking list
STARLINK-30236
Track 1 satellite(s)




NASA's NSSDC Master Catalog

Two Line Element Set (TLE):
1 14547U 83120B   25199.56107611  .00000085  00000-0  69938-4 0  9990
2 14547  82.9295  52.6384 0045420 239.0345 120.6346 13.77380274846706
Source of the keplerian elements: AFSPC